Home   Weather   Rio de Janeiro   Past weeks

Flag for Brazil Past Weather in Rio de Janeiro, Rio de Janeiro, Brazil — Yesterday and Last 2 Weeks

73 °F

More clouds than sun.

Feels Like: 74 °F
Forecast: 72 / 77 °F
Wind: 9 mph from Southeast

Location: Galeao

Current Time: Oct 22, 2016 at 5:46:59 PM

Latest Report: Oct 22, 2016 at 5:00 PM

Visibility: N/A

Pressure: 30.04 "Hg

Humidity: 78%

Dew Point: 66 °F

Location of Rio de JaneiroLocation

Past Weather in Rio de Janeiro — Graph


Rio de Janeiro Temperature Yesterday

Maximum temperature yesterday: 84 °F (at 4:00 PM)
Minimum temperature yesterday: 75 °F (at 11:00 PM)
Average temperature yesterday: 80 °F

High & Low Weather Summary for the Past Weeks

High97 °F (Oct 20, 4:00 PM)94% (Oct 22, 10:00 AM)30.24 "Hg (Oct 22, 10:00 AM)
Low63 °F (Oct 8, 5:00 AM)38% (Oct 13, 4:00 PM)29.65 "Hg (Oct 20, 5:00 PM)
Average77 °F73%29.95 "Hg
* Reported Oct 7 3:00 PM — Oct 22 4:00 PM, Rio de Janeiro, Weather by CustomWeather, © 2016

Note: Actual official high and low records may vary slightly from our data, if they occured in-between our weather recording intervals... More about our weather records


Rio de Janeiro Weather History for the Previous 24 Hours

Scroll right to see more
Time TempWeatherWind HumidityBarometerVisibility
4:00 PM
Sat, Oct 22
73 °FMostly cloudy.6 mph78%30.04 "HgN/A
3:00 PM73 °FPartly sunny.3 mph78%30.07 "HgN/A
2:00 PM72 °FLight rain. Partly sunny.3 mph88%30.07 "Hg2 mi
1:00 PM72 °FFog.8 mph88%30.09 "Hg2 mi
12:00 PM72 °FMostly cloudy.2 mph88%30.09 "Hg5 mi
11:00 AM70 °FMore clouds than sun.5 mph94%30.09 "Hg4 mi
10:00 AM70 °FLight rain. Cloudy.3 mph94%30.09 "Hg3 mi
9:00 AM72 °FMore clouds than sun.5 mph83%30.07 "Hg5 mi
8:00 AM72 °FLight rain. Cloudy.5 mph88%30.07 "Hg4 mi
7:00 AM73 °FLight rain. More clouds than sun.12 mph78%30.04 "Hg4 mi
6:00 AM72 °FPartly cloudy.10 mph83%29.98 "HgN/A
5:00 AM73 °FPassing clouds.8 mph83%29.95 "Hg5 mi
4:00 AM73 °FPassing clouds.9 mph83%29.98 "HgN/A
3:00 AM73 °FPassing clouds.7 mph83%29.98 "HgN/A
2:00 AM75 °FPartly cloudy.7 mph78%29.98 "HgN/A
1:00 AM75 °FMostly cloudy.8 mph83%29.98 "HgN/A
12:00 AM75 °FMostly cloudy.9 mph83%30.01 "HgN/A
11:00 PM
Fri, Oct 21
75 °FPassing clouds.7 mph83%30.01 "HgN/A
10:00 PM77 °FPartly cloudy.10 mph79%29.98 "HgN/A
9:00 PM77 °FMostly cloudy.9 mph79%29.95 "HgN/A
8:00 PM79 °FMostly cloudy.13 mph74%29.95 "HgN/A
7:00 PM79 °FPartly cloudy.14 mph74%29.92 "HgN/A
6:00 PM81 °FBroken clouds.10 mph70%29.89 "HgN/A
5:00 PM82 °FBroken clouds.13 mph66%29.89 "HgN/A
Weather by CustomWeather, © 2016

See weather overviewHow to use our weather pages